EW5385 Weather Reports


time (UTC)temp
C
wind
direction
speed
KPH
gust
KPH
rain 1hr
cm
rain 24hr
cm
rain mn
cm
humidity
%
barometer
mb
20260510000046 20 240 0.0 0.0 0.00 0.00 0.00 70 1023.1
20260509234541 20 232 0.0 0.0 0.00 0.00 0.00 70 1022.9
20260509233037 18 217 0.0 0.0 0.00 0.00 0.00 70 1023.1
20260509231533 18 226 0.0 0.0 0.00 0.00 0.00 69 1022.9
20260509230028 17 265 0.0 0.0 0.00 0.00 0.00 68 1022.6
20260509224526 16 259 0.0 0.0 0.00 0.00 0.00 68 1022.6
20260509223018 16 260 0.0 0.0 0.00 0.00 0.00 65 1022.6
20260509221516 15 219 0.0 0.0 0.00 0.00 0.00 63 1022.4
20260509220009 14 220 0.0 0.0 0.00 0.00 0.00 64 1022.3
20260509214504 13 207 0.0 0.0 0.00 0.00 0.00 63 1022.3
20260509213059 13 226 0.0 0.0 0.00 0.00 0.00 63 1022.1
20260509211557 13 246 0.0 0.0 0.00 0.00 0.00 60 1021.9
20260509210052 13 259 0.0 0.0 0.00 0.00 0.00 59 1021.6
20260509204546 13 241 0.0 0.0 0.00 0.00 0.00 57 1021.4
20260509203103 -17 0.0 0.0 0.00 0.00 0.00 1021.2
20260509201537 -17 0.0 0.0 0.00 0.00 0.00 1021.1
20260509200033 -17 0.0 0.0 0.00 0.00 0.00 1021.0
20260509194530 -17 0.0 0.0 0.00 0.00 0.00 1021.1
20260509193029 -17 0.0 0.0 0.00 0.00 0.00 1020.9
20260509191518 -17 0.0 0.0 0.00 0.00 0.00 1020.7
20260509190015 -17 0.0 0.0 0.00 0.00 0.00 1020.5
20260509184513 -17 0.0 0.0 0.00 0.00 0.00 1020.5
20260509183012 -17 0.0 0.0 0.00 0.00 0.00 1020.6
20260509181502 -17 0.0 0.0 0.00 0.00 0.00 1020.4
20260509180106 -17 0.0 0.0 0.00 0.00 0.00 1020.4
20260509174553 -17 0.0 0.0 0.00 0.00 0.00 1020.3
20260509173057 -17 0.0 0.0 0.00 0.00 0.00 1020.1
20260509171544 -17 0.0 0.0 0.00 0.00 0.00 1020.1
20260509170041 -67 248 0.0 0.0 0.00 0.00 0.00 58 1020.0
20260509164538 12 254 0.0 0.0 0.00 0.00 0.00 61 1020.3
20260509163032 13 245 0.0 0.0 0.00 0.00 0.00 68 1020.2
20260509161532 13 229 0.0 0.0 0.00 0.00 0.00 69 1020.2
20260509160028 14 221 0.0 0.0 0.00 0.00 0.00 71 1020.1
20260509154527 15 228 0.0 0.0 0.00 0.00 0.00 71 1020.1
20260509153024 15 221 0.0 0.0 0.00 0.00 0.00 71 1020.3
20260509151524 15 215 0.0 0.0 0.00 0.00 0.00 71 1020.4
20260509150021 15 221 0.0 0.0 0.00 0.00 0.00 71 1020.4
20260509144526 14 180 0.0 0.0 0.00 0.00 0.00 70 1020.6
20260509143016 14 193 0.0 0.0 0.00 0.00 0.00 68 1020.6
20260509141514 14 203 0.0 0.0 0.00 0.00 0.00 68 1020.6
20260509140010 14 235 0.0 0.0 0.00 0.00 0.00 69 1020.5
20260509134506 14 249 0.0 0.0 0.00 0.00 0.00 68 1020.7
20260509133004 14 249 0.0 0.0 0.00 0.00 0.00 68 1020.7
20260509131602 15 247 0.0 0.0 0.00 0.00 0.00 70 1020.6
20260509130101 16 256 0.0 0.0 0.00 0.00 0.00 70 1020.6
20260509124549 16 202 0.0 0.0 0.00 0.00 0.00 69 1020.6
20260509123050 16 183 0.0 0.0 0.00 0.00 0.00 69 1020.6
20260509121538 16 221 0.0 0.0 0.00 0.00 0.00 69 1020.6
20260509120035 16 214 0.0 0.0 0.00 0.00 0.00 70 1020.7
20260509114529 16 206 0.0 0.0 0.00 0.00 0.00 70 1020.7
20260509113024 16 195 0.0 0.0 0.00 0.00 0.00 69 1020.7
20260509111521 17 200 0.0 0.0 0.00 0.00 0.00 69 1020.8
20260509110020 17 203 0.0 0.0 0.00 0.00 0.00 69 1020.7
20260509104512 17 193 0.0 0.0 0.00 0.00 0.00 70 1020.6
20260509103008 17 143 0.0 0.0 0.00 0.00 0.00 70 1020.5
20260509101502 17 79 0.0 0.0 0.00 0.00 0.00 70 1020.4
20260509100058 17 79 0.0 0.0 0.00 0.00 0.00 70 1020.4
20260509094554 17 79 0.0 0.0 0.00 0.00 0.00 70 1020.2
20260509093049 17 79 0.0 0.0 0.00 0.00 0.00 70 1020.0
20260509091545 18 79 0.0 0.0 0.00 0.00 0.00 69 1019.9
20260509090040 18 79 0.0 0.0 0.00 0.00 0.00 68 1019.7
20260509084538 18 79 0.0 0.0 0.00 0.00 0.00 68 1019.6
20260509083037 18 79 0.0 0.0 0.00 0.00 0.00 66 1019.3
20260509081529 19 78 0.0 0.0 0.00 0.00 0.00 64 1019.1
20260509080033 19 78 0.0 0.0 0.00 0.00 0.00 63 1019.0
20260509074518 20 79 0.0 0.0 0.00 0.00 0.00 61 1018.9
20260509073013 20 91 0.0 0.0 0.00 0.00 0.00 59 1018.8
20260509071509 20 88 0.0 0.0 0.00 0.00 0.00 58 1018.7
20260509070004 21 91 0.0 0.0 0.00 0.00 0.00 55 1018.5
20260509064600 21 103 1.6 11.3 0.00 0.00 0.00 52 1018.3
20260509063055 21 58 0.0 0.0 0.00 0.00 0.00 51 1018.1
20260509061606 22 73 0.0 0.0 0.00 0.00 0.00 50 1017.9
20260509054548 22 83 0.0 14.5 0.00 0.00 0.00 49 1017.7
20260509053038 22 126 4.8 14.5 0.00 0.00 0.00 49 1017.6
20260509051531 22 131 0.0 14.5 0.00 0.00 0.00 49 1017.7
20260509050036 22 82 0.0 0.0 0.00 0.00 0.00 48 1017.6
20260509044522 22 61 0.0 0.0 0.00 0.00 0.00 49 1017.5
20260509043018 22 134 3.2 12.9 0.00 0.00 0.00 49 1017.6
20260509041513 22 105 6.4 16.1 0.00 0.00 0.00 48 1017.6
20260509040008 22 77 0.0 6.4 0.00 0.00 0.00 49 1017.5
20260509034506 22 148 0.0 8.0 0.00 0.00 0.00 50 1017.6
20260509033002 22 215 3.2 11.3 0.00 0.00 0.00 51 1017.8
20260509031557 22 176 0.0 0.0 0.00 0.00 0.00 50 1017.7
20260509030054 22 82 0.0 0.0 0.00 0.00 0.00 51 1017.9
20260509024548 22 117 3.2 14.5 0.00 0.00 0.00 52 1018.1
20260509023055 22 3 1.6 12.9 0.00 0.00 0.00 53 1018.3
20260509021539 22 115 0.0 0.0 0.00 0.00 0.00 53 1018.5
20260509020034 21 221 0.0 0.0 0.00 0.00 0.00 53 1018.7
20260509014529 21 136 0.0 0.0 0.00 0.00 0.00 54 1018.9
20260509013025 21 44 0.0 0.0 0.00 0.00 0.00 55 1019.1
20260509011519 21 171 0.0 0.0 0.00 0.00 0.00 55 1019.3
20260509010016 21 122 0.0 11.3 0.00 0.00 0.00 54 1019.4
20260509004521 20 226 0.0 0.0 0.00 0.00 0.00 54 1019.5
20260509003007 20 165 0.0 0.0 0.00 0.00 0.00 56 1019.7
20260509001504 19 172 0.0 0.0 0.00 0.00 0.00 56 1019.8